User: anonymous   Login
Location: Newark
(48.8604°N, 2.3376°E)
Time: 22:05:34
(UTC+00:00)
Language:

DIWATA 2B (PO-101) - Orbit

View from above orbital plane
View from above orbital plane
View from above satellite
View from above satellite

Ground track
Ground track

The orbit data is extracted from the following two-line orbital elements,

1 43678U 18084H   21339.49404342 -.00000063  00000-0 -44586-6 0  9991
2 43678  97.9453 105.8945 0009217 198.8793 161.2063 14.91842210168931
Epoch (UTC): 05 December 2021 11:51:25
Eccentricity: 0.0009217
inclination: 97.9453°
perigee height: 586 km
apogee height: 598 km
right ascension of ascending node: 105.8945°
argument of perigee: 198.8793°
revolutions per day: 14.91842210
mean anomaly at epoch: 161.2063°
orbit number at epoch: 16893

The dashed part of the orbit path shows where the satellite is in the earth's shadow,  

DLR